Location: Marstown
(39.5056°N, 77.0820°W)
Time: 22:56:09
(UTC-05:00)

Hubble Space Telescope - Visible Passes

Search period start: 18 January 2019 00:00
Search period end: 28 January 2019 00:00
Orbit: 537 x 540 km, 28.5° (Epoch: 18 January)

Date Brightness Start Highest point End Pass type
(mag) Time Alt. Az. Time Alt. Az. Time Alt. Az.
18 Jan 3.3 05:37:45 10° SSW 05:39:56 14° S 05:42:11 10° SE visible
19 Jan 3.1 05:28:06 14° SSW 05:29:22 16° S 05:31:52 10° SE visible
20 Jan 2.9 05:18:21 16° S 05:18:48 17° S 05:21:27 10° SE visible
20 Jan 3.1 06:56:44 10° SW 06:59:20 16° S 07:01:55 10° SSE visible
21 Jan 3.0 05:08:34 17° S 05:08:34 17° S 05:11:00 10° SE visible
21 Jan 3.2 06:46:22 10° SW 06:48:46 15° S 06:51:10 10° SSE visible
22 Jan 3.1 04:58:45 16° SSE 04:58:45 16° SSE 05:00:29 10° SE visible
22 Jan 3.2 06:36:05 10° SW 06:38:11 14° SSW 06:40:18 10° SSE visible
23 Jan 3.4 04:48:54 14° SSE 04:48:54 14° SSE 04:49:55 10° SE visible
23 Jan 3.2 06:25:57 10° SW 06:27:37 12° SSW 06:29:16 10° S visible
24 Jan 3.7 04:39:04 11° SE 04:39:04 11° SE 04:39:17 10° SE visible
24 Jan 3.3 06:16:15 10° SSW 06:17:01 10° SSW 06:17:48 10° S visible
